Weather in Toktarsola

Russia / Mari El Republic     56°55′11″N   48°43′22″E
temp.,
°C
wind,
m/s
gust,
m/s
humid.,
%
clouds,
%
prec.,
mm/h
press.,
hPa
HPBL,
m
31 july, sat
sat3100:00+21ssw2264100 0.0 100326
03:00+17sw2397100 3.0 100483
06:00+17sse3697100 2.3 1003205
09:00+19ssw3795100 3.3 1002483
12:00+21wsw578460 0.7 1002651
15:00+23wsw79744 2.4 10021139
18:00+23sw487099 1.0 1002256
21:00+18wsw497799 1.1 1005140
1 august, sun
sun100:00+18sw497815 0.0 1006171
03:00+17wsw49765 0.0 1006220
06:00+18wsw410700 0.0 1008312
09:00+22wsw68545 0.0 10091002
12:00+25w794552 0.0 10102146
15:00+24wsw5953100 0.0 1010660
18:00+23wsw4105575 0.0 1011331
21:00+20sw346399 0.0 101156
2 august, mon
mon200:00+18sw3574100 0.0 101268
03:00+19ssw41068100 0.0 1012222
06:00+19ssw3477100 0.1 101293
09:00+24sw6953100 0.1 1012702
12:00+28wsw684494 0.0 10111234
15:00+30wsw694142 0.0 10112314
18:00+27wsw48575 0.0 1011392
21:00+22s346711 0.3 101049
3 august, tue
tue300:00+20s411746 0.5 1010168
03:00+18ssw468242 0.6 100990
06:00+20s5127621 0.6 1009241
09:00+24s51256100 0.6 1007468
12:00+32ssw8113463 0.0 10061218
15:00+33sw8103217 0.0 10052844
18:00+25ssw4135948 0.3 1006506
21:00+21ssw4971100 0.3 1007150
4 august, wed
wed400:00+20sw41170100 0.0 1008242
03:00+17s3590100 0.9 100889
06:00+19ssw4987100 0.0 1007259
09:00+21wsw5679100 0.4 1008717
12:00+22wsw777098 0.1 10101059
15:00+20w6869100 0.1 10111103
18:00+21wnw58621 0.0 10121313
21:00+16wnw37800 0.0 1013119